Stations météo

Publicité
Ouessant, France (7100): Température de l'air & dewpoint: 12.12.2017 21:00:00 - 18.12.2017 21:00:00 (CET)Ouessant, France (7100): Vitesse du vent & gusts: 12.12.2017 21:00:00 - 18.12.2017 21:00:00 (CET)Ouessant, France (7100): Direction du vent: 12.12.2017 21:00:00 - 18.12.2017 21:00:00 (CET)Ouessant, France (7100): reduced air pressure: 12.12.2017 21:00:00 - 18.12.2017 21:00:00 (CET)Ouessant, France (7100): visibility: 12.12.2017 21:00:00 - 18.12.2017 21:00:00 (CET)Ouessant, France (7100): Quantités de précipitations: 12.12.2017 21:00:00 - 18.12.2017 21:00:00 (CET)
Date & Time tt [°C] td [°C] ff [km/h] ff [knt] fx [km/h] fx [knt] dd ppp [hPa] vv [km] rr [mm]
18.12.2017 21:00:00 8,8 6,1 17 9 24 13 E 1033,2 - 0,0
18.12.2017 20:00:00 9,1 6,0 21 11 32 17 E 1032,6 - 0,0
18.12.2017 19:00:00 9,6 7,2 27 15 31 17 E 1031,7 25 0,0
18.12.2017 18:00:00 9,8 7,4 19 10 27 15 ENE 1031,3 - 0,0
18.12.2017 17:00:00 10,5 7,9 14 8 21 11 NE 1030,7 - 0,0
18.12.2017 16:00:00 11,6 8,4 16 9 23 12 NNE 1030,1 25 0,0
18.12.2017 15:00:00 11,7 8,5 15 8 25 14 N 1030,0 - 0,0
18.12.2017 14:00:00 12,2 9,4 18 10 27 14 NE 1030,1 - 0,0
18.12.2017 13:00:00 12,0 9,7 15 8 22 12 N 1030,2 20 0,0
18.12.2017 12:00:00 11,8 10,4 11 6 26 14 N 1030,3 - 0,0
18.12.2017 11:00:00 10,8 10,3 16 9 34 19 N 1029,7 - 0,0
18.12.2017 10:00:00 10,6 10,3 23 12 36 20 N 1029,1 16 0,0
18.12.2017 09:00:00 10,8 10,6 21 12 38 20 N 1028,5 - 0,0
18.12.2017 08:00:00 10,7 10,5 28 15 39 21 NNW 1027,7 - 0,0
18.12.2017 07:00:00 10,5 10,3 30 16 41 22 NW 1026,9 0,8 0,0
18.12.2017 06:00:00 10,6 10,3 31 17 46 25 NW 1026,4 - 0,0
18.12.2017 05:00:00 11,2 10,9 29 15 43 23 NW 1026,6 - 0,0
18.12.2017 04:00:00 11,6 11,3 29 15 48 26 WNW 1026,7 0,8 0,0
18.12.2017 03:00:00 11,8 11,5 32 17 42 23 W 1026,2 - 0,0
18.12.2017 02:00:00 11,7 11,4 32 17 44 24 W 1026,4 - 0,0
18.12.2017 01:00:00 11,7 11,2 27 15 40 21 W 1027,1 12 0,2
18.12.2017 00:00:00 11,6 11,1 30 16 50 27 W 1027,5 - 0,0
17.12.2017 23:00:00 11,5 10,7 32 18 61 33 WSW 1027,4 - 0,0
17.12.2017 22:00:00 11,5 10,4 39 21 59 32 WSW 1026,7 - 0,0
17.12.2017 21:00:00 11,4 10,1 43 23 62 33 WSW 1026,4 - 0,0
17.12.2017 20:00:00 11,2 9,6 30 16 43 23 SW 1026,7 - 0,0
17.12.2017 19:00:00 11,0 9,3 30 16 41 22 SW 1026,7 20 0,0
17.12.2017 18:00:00 11,3 9,4 24 13 38 20 WSW 1027,5 - 0,0
17.12.2017 17:00:00 11,3 8,9 26 14 36 20 WSW 1027,5 - 0,0
17.12.2017 16:00:00 11,5 8,4 26 14 40 21 WSW 1027,2 20 0,0
17.12.2017 15:00:00 11,3 7,8 24 13 40 21 W 1028,0 - 0,0
17.12.2017 14:00:00 11,3 7,6 25 14 35 19 W 1028,1 - 0,0
17.12.2017 13:00:00 11,1 7,2 24 13 35 19 WSW 1027,9 20 0,0
17.12.2017 12:00:00 11,2 7,5 20 11 29 16 W 1028,3 - 0,0
17.12.2017 11:00:00 10,3 7,2 19 10 27 15 W 1028,6 - 0,0
17.12.2017 10:00:00 9,9 6,8 19 11 29 16 WNW 1028,5 20 0,0
17.12.2017 09:00:00 9,3 5,7 21 11 34 18 WNW 1028,1 - 0,0
17.12.2017 08:00:00 9,4 5,6 29 16 37 20 WNW 1028,0 - 0,0
17.12.2017 07:00:00 9,2 5,9 26 14 38 21 WNW 1027,7 - 0,0
17.12.2017 06:00:00 9,5 5,7 30 16 40 22 WNW 1027,6 - 0,0
17.12.2017 05:00:00 9,8 6,3 27 15 38 20 WNW 1027,7 - 0,0
17.12.2017 04:00:00 9,3 5,3 31 17 41 22 NW 1028,0 20 0,0
17.12.2017 03:00:00 9,5 6,4 25 13 45 25 NW 1027,9 - 0,0
17.12.2017 02:00:00 9,7 5,7 32 17 48 26 WNW 1027,7 - 0,0
17.12.2017 01:00:00 9,6 5,6 29 16 39 21 WNW 1028,0 20 0,0
17.12.2017 00:00:00 9,4 5,2 29 16 41 22 WNW 1028,0 - 0,0
16.12.2017 23:00:00 9,6 5,0 32 17 45 25 NW 1027,7 - 0,0
16.12.2017 22:00:00 9,4 4,6 28 15 48 26 NW 1027,1 20 0,0
16.12.2017 21:00:00 9,1 4,9 29 16 46 25 NW 1027,5 - 0,0
16.12.2017 20:00:00 8,6 3,6 25 14 42 23 NW 1027,2 - 0,0
16.12.2017 19:00:00 8,2 3,2 23 13 35 19 NW 1026,8 - 0,0
16.12.2017 18:00:00 8,3 2,9 27 14 36 20 NW 1026,4 - 0,0
16.12.2017 17:00:00 8,4 2,4 27 14 39 21 NW 1025,9 - 0,0
16.12.2017 16:00:00 9,0 2,1 23 12 39 21 NNW 1025,3 25 0,0
16.12.2017 15:00:00 9,1 2,4 24 13 37 20 NNW 1024,9 - 0,0
16.12.2017 14:00:00 9,0 1,6 27 15 43 23 N 1024,7 - 0,0
16.12.2017 13:00:00 9,0 1,6 27 14 48 26 N 1024,3 25 0,0
16.12.2017 12:00:00 9,0 2,3 29 16 62 34 N 1024,2 - 0,0
16.12.2017 11:00:00 8,8 3,0 39 21 76 41 N 1023,4 - 0,0
16.12.2017 10:00:00 8,5 2,3 39 21 54 29 NNW 1022,3 18 0,0
16.12.2017 09:00:00 8,5 2,5 41 22 61 33 NNW 1021,6 - 0,0
16.12.2017 08:00:00 8,5 1,9 33 18 63 34 N 1020,8 - 0,0
16.12.2017 07:00:00 7,6 2,9 31 17 69 37 NNW 1020,2 15 0,0
16.12.2017 06:00:00 8,0 3,5 32 17 57 31 NNW 1019,6 - 0,0
16.12.2017 05:00:00 6,7 1,6 36 19 74 40 NNW 1019,1 - 0,0
16.12.2017 04:00:00 6,5 2,8 26 14 78 42 N 1018,8 15 0,2
16.12.2017 03:00:00 8,5 2,9 36 19 70 38 N 1017,6 - 0,0
16.12.2017 02:00:00 8,5 3,3 34 18 63 34 N 1017,1 - 0,0
16.12.2017 01:00:00 8,4 5,0 42 23 67 36 N 1016,5 20 0,0
16.12.2017 00:00:00 8,8 4,0 40 22 71 39 N 1015,7 - 0,0
15.12.2017 23:00:00 9,1 4,7 46 25 - - NNW 1015,0 - 0,0
15.12.2017 22:00:00 8,5 5,2 41 22 75 41 N 1014,4 20 0,8
15.12.2017 21:00:00 8,0 5,3 48 26 74 40 N 1013,7 - 0,0
15.12.2017 20:00:00 9,3 5,3 46 25 71 39 N 1012,2 - 0,0
15.12.2017 19:00:00 8,8 5,5 51 27 73 39 N 1011,1 - 0,0
15.12.2017 18:00:00 9,0 5,7 52 28 78 42 NNW 1010,2 - 0,0
15.12.2017 17:00:00 9,1 4,9 55 30 88 48 NNW 1009,2 - 0,0
15.12.2017 16:00:00 9,0 5,4 53 29 84 46 NNW 1008,0 15 0,0
15.12.2017 15:00:00 7,7 5,5 54 29 80 43 NNW 1007,5 - 0,4
15.12.2017 14:00:00 9,4 4,8 51 27 79 42 NNW 1007,0 - 0,0
15.12.2017 13:00:00 9,4 3,8 56 31 90 48 NNW 1006,4 10 0,0
15.12.2017 12:00:00 9,1 4,7 55 30 89 48 NNW 1006,0 - 0,0
15.12.2017 11:00:00 8,1 5,4 67 36 98 53 NNW 1004,8 - 0,2
15.12.2017 10:00:00 8,6 6,0 64 35 97 53 NNW 1003,9 10 0,6
15.12.2017 09:00:00 9,4 4,8 64 34 91 49 NNW 1003,0 - 0,0
15.12.2017 08:00:00 9,2 4,2 66 36 92 50 NNW 1002,1 - 0,0
15.12.2017 07:00:00 9,3 5,8 56 30 84 45 NNW 1001,3 15 0,0
15.12.2017 06:00:00 8,0 6,1 45 25 69 37 NW 1000,8 - 0,2
15.12.2017 05:00:00 8,5 5,1 46 25 73 39 WNW 1000,7 - 0,0
15.12.2017 04:00:00 8,7 3,9 55 30 80 43 NW 1001,0 15 0,0
15.12.2017 03:00:00 8,2 5,3 50 27 89 48 WNW 1001,0 - 0,0
15.12.2017 02:00:00 8,1 5,4 50 27 88 47 WNW 1001,2 - 0,0
15.12.2017 01:00:00 7,8 3,8 56 31 84 46 NW 1001,1 15 0,2
15.12.2017 00:00:00 8,7 4,1 58 31 84 46 WNW 1000,5 - 0,0
14.12.2017 23:00:00 8,8 4,6 56 30 94 51 NW 1000,2 - 0,0
14.12.2017 22:00:00 8,6 4,6 65 35 90 49 NW 999,6 20 0,0
14.12.2017 21:00:00 8,0 4,9 62 34 90 48 WNW 999,0 - 0,0
14.12.2017 20:00:00 6,0 4,5 65 35 117 63 NW 998,7 - 1,4
14.12.2017 19:00:00 7,6 3,6 74 40 109 59 NW 998,0 10 0,0
14.12.2017 18:00:00 7,7 3,7 61 33 89 48 WNW 998,2 - 0,4
14.12.2017 17:00:00 7,7 4,1 61 33 105 57 WNW 998,1 - 0,0
14.12.2017 16:00:00 8,1 4,1 61 33 90 49 WNW 997,8 10 0,0
14.12.2017 15:00:00 6,3 4,1 63 34 116 63 WNW 999,1 - 1,4
14.12.2017 14:00:00 9,7 5,5 60 32 90 48 W 999,1 - 0,0
14.12.2017 13:00:00 8,1 5,9 52 28 95 51 W 1000,7 10 1,4
14.12.2017 12:00:00 8,6 5,9 51 28 88 48 W 1001,9 - 0,0
14.12.2017 11:00:00 8,3 6,3 50 27 95 51 W 1002,3 - 0,4
14.12.2017 10:00:00 8,0 6,0 55 30 84 45 WNW 1002,8 - 0,0
14.12.2017 09:00:00 7,6 5,9 55 30 89 48 WNW 1003,3 - 0,8
14.12.2017 08:00:00 8,3 5,2 61 33 101 54 WNW 1003,7 - 0,8
14.12.2017 07:00:00 8,6 5,3 63 34 93 50 W 1003,8 8 0,2
14.12.2017 06:00:00 8,2 4,8 60 33 85 46 W 1004,6 - 0,2
14.12.2017 05:00:00 8,1 5,2 52 28 92 50 W 1005,8 - 0,2
14.12.2017 04:00:00 8,5 4,1 57 31 78 42 WNW 1006,3 15 0,2
14.12.2017 03:00:00 8,8 4,8 51 28 80 43 WNW 1006,6 - 0,0
14.12.2017 02:00:00 8,6 5,0 51 27 86 47 WNW 1006,7 - 0,0
14.12.2017 01:00:00 8,4 3,8 50 27 91 49 WNW 1006,7 15 0,0
14.12.2017 00:00:00 8,0 4,6 62 34 99 54 WNW 1006,6 - 0,0
13.12.2017 23:00:00 8,8 3,0 63 34 109 59 NW 1006,0 - 0,0
13.12.2017 22:00:00 8,8 5,2 66 36 115 62 WNW 1004,8 18 0,2
13.12.2017 21:00:00 8,7 7,0 68 37 122 66 WNW 1004,3 - 0,4
13.12.2017 20:00:00 10,5 6,1 64 35 96 52 W 1003,5 - 0,0
13.12.2017 19:00:00 10,1 5,5 61 33 98 53 W 1003,6 8 0,0
13.12.2017 18:00:00 9,6 4,0 68 37 97 53 WNW 1003,4 - 0,0
13.12.2017 17:00:00 9,8 7,7 55 30 100 54 WNW 1003,4 - 0,0
13.12.2017 16:00:00 11,1 9,4 49 26 77 42 WNW 1002,9 12 0,0
13.12.2017 15:00:00 11,3 10,5 48 26 67 36 WNW 1002,0 - 0,0
13.12.2017 14:00:00 11,4 10,9 16 8 40 22 WSW 1002,0 - 0,0
13.12.2017 13:00:00 11,0 10,5 36 20 60 32 SSW 1002,6 8 0,0
13.12.2017 12:00:00 10,9 10,3 41 22 69 37 SW 1004,3 - 0,4
13.12.2017 11:00:00 10,5 9,7 40 22 61 33 SW 1005,1 - 0,0
13.12.2017 10:00:00 10,5 8,8 40 22 59 32 SW 1006,6 8 0,0
13.12.2017 09:00:00 10,3 7,2 36 20 59 32 WSW 1007,5 - 0,0
13.12.2017 08:00:00 9,8 7,2 40 22 58 32 W 1008,2 - 0,2
13.12.2017 07:00:00 10,6 8,2 29 16 43 23 W 1008,9 10 0,0
13.12.2017 06:00:00 10,4 7,5 36 19 47 26 W 1009,0 - 0,0
13.12.2017 05:00:00 9,8 7,6 21 11 53 28 NW 1009,4 - 0,0
13.12.2017 04:00:00 10,3 7,2 34 19 58 31 WNW 1009,1 10 0,0
13.12.2017 03:00:00 10,4 7,3 39 21 57 31 WNW 1009,7 - 0,0
13.12.2017 02:00:00 10,3 7,5 37 20 - - WNW 1009,4 - 0,0
13.12.2017 01:00:00 10,4 7,8 40 22 55 30 WNW 1008,9 10 0,0
13.12.2017 00:00:00 10,7 10,1 35 19 70 38 WSW 1008,5 - 0,0
12.12.2017 23:00:00 10,7 10,2 44 24 67 36 SW 1008,7 - 0,2
12.12.2017 22:00:00 10,0 9,4 42 23 64 35 SW 1009,9 8 0,0
12.12.2017 21:00:00 9,7 8,8 40 22 61 33 SW 1010,7 - 0,0

tt = Température de l'air
td = dewpoint
ff = Vitesse du vent
fx = gusts
dd = Direction du vent
ppp = reduced air pressure
vv = visibility
rr = Quantités de précipitations

stations d'obs. à proximité